User: anonymous   Login
Location: Newark
(34.0111°N, 88.4892°W)
Time: 06:38:17
(UTC+00:00)
Language:

SO-50 - Orbit

View from above orbital plane
View from above orbital plane
View from above satellite
View from above satellite

Ground track
Ground track

The orbit data is extracted from the following two-line orbital elements,

1 27607U 02058C   20152.01862251 -.00000046 +00000-0 +14026-4 0  9990
2 27607 064.5564 067.6737 0050114 181.9911 178.1000 14.75636561938158
Epoch (UTC): 31 May 2020 00:26:48
Eccentricity: 0.0050114
inclination: 64.5564°
perigee height: 608 km
apogee height: 678 km
right ascension of ascending node: 67.6737°
argument of perigee: 181.9911°
revolutions per day: 14.75636561
mean anomaly at epoch: 178.1000°
orbit number at epoch: 93815

The dashed part of the orbit path shows where the satellite is in the earth's shadow,  

DLR